Weather History for KRQE - June, 2013

Change the Weather History Date:

Friday, June 14, 2013

  Actual Average Record
Temperature  
Mean Temperature 68 °F -  
Max Temperature 84 °F 80 °F - (-1)
Min Temperature 53 °F 46 °F - (-1)
Cooling Degree Days 4    
Growing Degree Days 18 (Base 50)    
Moisture  
Dew Point 25 °F    
Average Humidity 18    
Maximum Humidity 40    
Minimum Humidity 10    
Precipitation  
Precipitation 0.00 in - - ()
Sea Level Pressure  
Sea Level Pressure 29.81 in    
Wind  
Wind Speed 5 mph (WSW)    
Max Wind Speed 17 mph    
Max Gust Speed 31 mph    
Visibility 10 miles    
Events      
Averages and records for this station are not official NWS values.
T = Trace of Precipitation, MM = Missing Value Source: NWS Daily Summary

Daily Weather History Graph

Daily Weather History Graph

Search for Another Location

Airport or City:

Trip Planner

Search our weather history database for the weather conditions in past years. The results will help you decide how hot, cold, wet, or windy it might be!

Date:

Astronomy

Jun. 14, 2013 Rise Set
Actual Time 5:59 AM MDT 8:33 PM MDT
Civil Twilight 5:29 AM MDT 9:03 PM MDT
Nautical Twilight 4:52 AM MDT 9:40 PM MDT
Astronomical Twilight 4:11 AM MDT 10:22 PM MDT
Moon 11:28 AM MDT (6/14) No Moon Set
Length of Visible Light 15h 33m
Length of Day
14h 33m
Waxing Crescent, 31% of the Moon is Illuminated
Jun 14
Waxing Crescent
Jun 16
First Quarter
Jun 23
Full
Jun 29
Last Quarter
Jul 8
New

Hourly Weather History & Observations

Time (MDT) Temp. Dew Point Humidity Pressure Visibility Wind Dir Wind Speed Gust Speed Precip Events Conditions
12:53 AM 66.0 °F 28.0 °F 24% 29.76 in 10.0 mi South 3.5 mph - N/A   Partly Cloudy
1:53 AM 64.9 °F 28.0 °F 25% 29.74 in 10.0 mi Calm Calm - N/A   Clear
2:53 AM 66.9 °F 27.0 °F 22% 29.73 in 10.0 mi Calm Calm - N/A   Clear
3:53 AM 64.9 °F 28.9 °F 26% 29.73 in 10.0 mi Calm Calm - N/A   Clear
4:53 AM 62.1 °F 28.9 °F 29% 30.17 in 10.0 mi Calm Calm - N/A   Clear
5:53 AM 53.1 °F 28.9 °F 40% 30.18 in 10.0 mi Calm Calm - N/A   Clear
7:53 AM 62.1 °F 28.0 °F 28% 30.20 in 10.0 mi Calm Calm - N/A   Clear
8:53 AM 69.1 °F 28.0 °F 22% 29.84 in 10.0 mi Calm Calm - N/A   Clear
9:53 AM 75.9 °F 25.0 °F 15% 29.81 in 10.0 mi Calm Calm - N/A   Clear
10:53 AM 80.1 °F 21.9 °F 12% 29.79 in 10.0 mi West 13.8 mph 20.7 mph N/A   Clear
11:53 AM 82.9 °F 23.0 °F 11% 29.78 in 10.0 mi West 6.9 mph 16.1 mph N/A   Clear
12:53 PM 82.0 °F 21.9 °F 11% 29.78 in 10.0 mi West 8.1 mph 21.9 mph N/A   Partly Cloudy
1:53 PM 84.9 °F 23.0 °F 10% 29.76 in 10.0 mi SW 12.7 mph 21.9 mph N/A   Partly Cloudy
2:53 PM 84.0 °F 23.0 °F 11% 29.72 in 10.0 mi WSW 12.7 mph 26.5 mph N/A   Partly Cloudy
3:53 PM 82.0 °F 24.1 °F 12% 29.73 in 10.0 mi WSW 10.4 mph 31.1 mph N/A   Partly Cloudy
4:53 PM 84.9 °F 25.0 °F 11% 29.70 in 10.0 mi West 17.3 mph 25.3 mph N/A   Partly Cloudy
5:53 PM 82.9 °F 25.0 °F 12% 29.73 in 10.0 mi WSW 13.8 mph 23.0 mph N/A   Partly Cloudy
6:53 PM 82.0 °F 21.9 °F 11% 29.71 in 10.0 mi WSW 16.1 mph 20.7 mph N/A   Clear
7:53 PM 80.1 °F 23.0 °F 12% 29.71 in 10.0 mi West 12.7 mph 18.4 mph N/A   Clear
8:53 PM 75.0 °F 23.0 °F 14% 29.71 in 10.0 mi West 5.8 mph - N/A   Clear
9:53 PM 68.0 °F 24.1 °F 19% 29.74 in 10.0 mi South 4.6 mph - N/A   Clear
10:53 PM 64.9 °F 23.0 °F 20% 29.75 in 10.0 mi South 3.5 mph - N/A   Clear
11:53 PM 57.9 °F 24.1 °F 27% 29.77 in 10.0 mi Calm Calm - N/A   Clear